| time (UTC) | temp F | wind direction | speed MPH | gust MPH | rain 1hr in | rain 24hr in | rain mn in | humidity % | barometer mb |
| 20260502130517 | 41 | 78 | 3.0 | 5.0 | 0.00 | 0.00 | 0.00 | 61 | 1019.0 |
| 20260502123511 | 42 | 94 | 3.0 | 4.0 | 0.00 | 0.00 | 0.00 | 58 | 1018.8 |
| 20260502123009 | 42 | 94 | 2.0 | 3.0 | 0.00 | 0.00 | 0.00 | 58 | 1018.8 |
| 20260502122509 | 42 | 94 | 3.0 | 4.0 | 0.00 | 0.00 | 0.00 | 60 | 1018.9 |
| 20260502122011 | 42 | 94 | 3.0 | 4.0 | 0.00 | 0.00 | 0.00 | 58 | 1018.8 |
| 20260502121511 | 42 | 94 | 3.0 | 4.0 | 0.00 | 0.00 | 0.00 | 57 | 1018.8 |
| 20260502121419 | 42 | 69 | 3.0 | 4.0 | 0.00 | 0.00 | 0.00 | 56 | 1018.8 |
| 20260502120511 | 42 | 69 | 3.0 | 4.0 | 0.00 | 0.00 | 0.00 | 56 | 1018.8 |
| 20260502115503 | 42 | 69 | 3.0 | 5.0 | 0.00 | 0.00 | 0.00 | 57 | 1018.8 |
| 20260502115005 | 42 | 49 | 3.0 | 5.0 | 0.00 | 0.00 | 0.00 | 58 | 1018.8 |
| 20260502114503 | 42 | 83 | 3.0 | 6.0 | 0.00 | 0.00 | 0.00 | 56 | 1018.7 |
| 20260502114010 | 42 | 86 | 3.0 | 6.0 | 0.00 | 0.00 | 0.00 | 57 | 1018.7 |
| 20260502113504 | 42 | 82 | 3.0 | 6.0 | 0.00 | 0.00 | 0.00 | 58 | 1018.7 |
| 20260502113001 | 42 | 80 | 3.0 | 6.0 | 0.00 | 0.00 | 0.00 | 58 | 1018.7 |
| 20260502112501 | 42 | 74 | 3.0 | 5.0 | 0.00 | 0.00 | 0.00 | 58 | 1018.8 |
| 20260502112002 | 42 | 74 | 3.0 | 5.0 | 0.00 | 0.00 | 0.00 | 58 | 1018.7 |
| 20260502111501 | 42 | 100 | 3.0 | 4.0 | 0.00 | 0.00 | 0.00 | 57 | 1018.8 |
| 20260502111149 | 42 | 103 | 3.0 | 5.0 | 0.00 | 0.00 | 0.00 | 59 | 1018.7 |
| 20260502111137 | 42 | 84 | 3.0 | 5.0 | 0.00 | 0.00 | 0.00 | 59 | 1018.8 |
| 20260502111039 | 42 | 86 | 3.0 | 5.0 | 0.00 | 0.00 | 0.00 | 59 | 1018.8 |
| 20260502110135 | 42 | 82 | 3.0 | 4.0 | 0.00 | 0.00 | 0.00 | 59 | 1018.8 |
| 20260502105005 | 42 | 89 | 3.0 | 5.0 | 0.00 | 0.00 | 0.00 | 59 | 1018.8 |
| 20260502104503 | 42 | 83 | 2.0 | 3.0 | 0.00 | 0.00 | 0.00 | 59 | 1018.8 |
| 20260502104003 | 43 | 83 | 3.0 | 4.0 | 0.00 | 0.00 | 0.00 | 58 | 1018.7 |
| 20260502103501 | 43 | 82 | 3.0 | 4.0 | 0.00 | 0.00 | 0.00 | 58 | 1018.8 |
| 20260502103005 | 43 | 82 | 2.0 | 4.0 | 0.00 | 0.00 | 0.00 | 58 | 1018.8 |
| 20260502102859 | 43 | 82 | 1.0 | 3.0 | 0.00 | 0.00 | 0.00 | 58 | 1018.7 |
| 20260502102002 | 44 | 82 | 1.0 | 4.0 | 0.00 | 0.00 | 0.00 | 59 | 1018.7 |
| 20260502101508 | 44 | 82 | 2.0 | 4.0 | 0.00 | 0.00 | 0.00 | 56 | 1018.6 |
| 20260502101500 | 44 | 82 | 3.0 | 4.0 | 0.00 | 0.00 | 0.00 | 56 | 1018.6 |
| 20260502100924 | 44 | 82 | 3.0 | 5.0 | 0.00 | 0.00 | 0.00 | 55 | 1018.6 |
| 20260502091505 | 45 | 71 | 0.0 | 4.0 | 0.00 | 0.00 | 0.00 | 54 | 1018.5 |
| 20260502091005 | 45 | 71 | 1.0 | 3.0 | 0.00 | 0.00 | 0.00 | 54 | 1018.5 |
| 20260502090508 | 45 | 71 | 3.0 | 4.0 | 0.00 | 0.00 | 0.00 | 53 | 1018.5 |
| 20260502071436 | 48 | 92 | 2.0 | 4.0 | 0.00 | 0.00 | 0.00 | 51 | 1018.7 |
| 20260502070940 | 48 | 92 | 3.0 | 5.0 | 0.00 | 0.00 | 0.00 | 50 | 1018.7 |
| 20260502070932 | 48 | 92 | 3.0 | 5.0 | 0.00 | 0.00 | 0.00 | 50 | 1018.8 |
| 20260502070844 | 48 | 103 | 3.0 | 4.0 | 0.00 | 0.00 | 0.00 | 50 | 1018.8 |
| 20260502065442 | 48 | 135 | 2.0 | 5.0 | 0.00 | 0.00 | 0.00 | 49 | 1018.7 |
| 20260502065433 | 48 | 103 | 3.0 | 4.0 | 0.00 | 0.00 | 0.00 | 50 | 1018.8 |
| 20260502065428 | 48 | 109 | 3.0 | 4.0 | 0.00 | 0.00 | 0.00 | 50 | 1018.8 |
| 20260502064450 | 48 | 135 | 2.0 | 5.0 | 0.00 | 0.00 | 0.00 | 49 | 1018.7 |
| 20260502063816 | 48 | 169 | 1.0 | 4.0 | 0.00 | 0.00 | 0.00 | 51 | 1018.8 |
| 20260502062933 | 49 | 194 | 2.0 | 4.0 | 0.00 | 0.00 | 0.00 | 50 | 1018.8 |
| 20260502062515 | 49 | 84 | 3.0 | 7.0 | 0.00 | 0.00 | 0.00 | 49 | 1018.7 |
| 20260502062451 | 49 | 146 | 2.0 | 7.0 | 0.00 | 0.00 | 0.00 | 50 | 1018.8 |
| 20260502061430 | 49 | 96 | 4.0 | 7.0 | 0.00 | 0.00 | 0.00 | 48 | 1018.7 |
| 20260502060928 | 50 | 83 | 3.0 | 5.0 | 0.00 | 0.00 | 0.00 | 47 | 1018.6 |
| 20260502060432 | 50 | 92 | 3.0 | 7.0 | 0.00 | 0.00 | 0.00 | 46 | 1018.6 |
| 20260502055933 | 50 | 98 | 4.0 | 7.0 | 0.00 | 0.00 | 0.00 | 46 | 1018.6 |
| 20260502055429 | 50 | 111 | 3.0 | 6.0 | 0.00 | 0.00 | 0.00 | 46 | 1018.6 |
| 20260502054931 | 50 | 246 | 2.0 | 3.0 | 0.00 | 0.00 | 0.00 | 45 | 1018.6 |
| 20260502054437 | 50 | 246 | 1.0 | 3.0 | 0.00 | 0.00 | 0.00 | 45 | 1018.5 |
| 20260502053935 | 50 | 246 | 1.0 | 3.0 | 0.00 | 0.00 | 0.00 | 45 | 1018.5 |
| 20260502053436 | 50 | 246 | 1.0 | 3.0 | 0.00 | 0.00 | 0.00 | 45 | 1018.6 |
| 20260502052933 | 50 | 246 | 1.0 | 4.0 | 0.00 | 0.00 | 0.00 | 45 | 1018.6 |
| 20260502052433 | 51 | 246 | 1.0 | 4.0 | 0.00 | 0.00 | 0.00 | 45 | 1018.5 |
| 20260502051937 | 51 | 146 | 2.0 | 6.0 | 0.00 | 0.00 | 0.00 | 46 | 1018.5 |
| 20260502051433 | 51 | 38 | 4.0 | 7.0 | 0.00 | 0.00 | 0.00 | 45 | 1018.4 |
| 20260502050933 | 51 | 96 | 4.0 | 7.0 | 0.00 | 0.00 | 0.00 | 44 | 1018.4 |
| 20260502050437 | 51 | 47 | 3.0 | 4.0 | 0.00 | 0.00 | 0.00 | 45 | 1018.5 |
| 20260502045926 | 51 | 84 | 3.0 | 4.0 | 0.00 | 0.00 | 0.00 | 44 | 1018.4 |
| 20260502045555 | 52 | 71 | 2.0 | 6.0 | 0.00 | 0.00 | 0.00 | 43 | 1018.5 |
| 20260502045510 | 52 | 84 | 4.0 | 6.0 | 0.00 | 0.00 | 0.00 | 43 | 1018.4 |
| 20260502045049 | 52 | 77 | 3.0 | 7.0 | 0.00 | 0.00 | 0.00 | 42 | 1018.4 |
| 20260502045005 | 52 | 67 | 3.0 | 6.0 | 0.00 | 0.00 | 0.00 | 44 | 1018.5 |
| 20260502044532 | 52 | 80 | 2.0 | 6.0 | 0.00 | 0.00 | 0.00 | 43 | 1018.5 |
| 20260502042909 | 52 | 88 | 4.0 | 7.0 | 0.00 | 0.00 | 0.00 | 42 | 1018.4 |
| 20260502042409 | 52 | 71 | 3.0 | 6.0 | 0.00 | 0.00 | 0.00 | 42 | 1018.4 |
| 20260502041911 | 53 | 91 | 3.0 | 4.0 | 0.00 | 0.00 | 0.00 | 41 | 1018.4 |
| 20260502041835 | 53 | 90 | 3.0 | 4.0 | 0.00 | 0.00 | 0.00 | 41 | 1018.2 |
| 20260502040905 | 53 | 86 | 2.0 | 4.0 | 0.00 | 0.00 | 0.00 | 39 | 1018.2 |
| 20260502040405 | 53 | 66 | 2.0 | 3.0 | 0.00 | 0.00 | 0.00 | 37 | 1018.1 |
| 20260502040305 | 53 | 66 | 2.0 | 3.0 | 0.00 | 0.00 | 0.00 | 36 | 1018.2 |
| 20260502035409 | 53 | 66 | 2.0 | 4.0 | 0.00 | 0.00 | 0.00 | 36 | 1018.1 |
| 20260502034905 | 54 | 66 | 3.0 | 4.0 | 0.00 | 0.00 | 0.00 | 36 | 1018.1 |
| 20260502034401 | 54 | 57 | 3.0 | 5.0 | 0.00 | 0.00 | 0.00 | 34 | 1018.0 |
| 20260502033905 | 54 | 44 | 3.0 | 6.0 | 0.00 | 0.00 | 0.00 | 34 | 1018.0 |
| 20260502033405 | 54 | 46 | 2.0 | 6.0 | 0.00 | 0.00 | 0.00 | 34 | 1017.9 |
| 20260502032901 | 55 | 45 | 2.0 | 7.0 | 0.00 | 0.00 | 0.00 | 33 | 1017.8 |
| 20260502032405 | 55 | 43 | 3.0 | 7.0 | 0.00 | 0.00 | 0.00 | 33 | 1017.8 |
| 20260502031903 | 55 | 69 | 3.0 | 4.0 | 0.00 | 0.00 | 0.00 | 33 | 1017.8 |
| 20260502031356 | 55 | 38 | 3.0 | 6.0 | 0.00 | 0.00 | 0.00 | 32 | 1017.7 |
| 20260502030857 | 56 | 46 | 3.0 | 6.0 | 0.00 | 0.00 | 0.00 | 33 | 1017.5 |
| 20260502030356 | 56 | 53 | 3.0 | 6.0 | 0.00 | 0.00 | 0.00 | 33 | 1017.5 |
| 20260502030310 | 56 | 49 | 3.0 | 7.0 | 0.00 | 0.00 | 0.00 | 34 | 1017.3 |
| 20260502025357 | 57 | 70 | 3.0 | 7.0 | 0.00 | 0.00 | 0.00 | 32 | 1017.3 |
| 20260502024901 | 57 | 69 | 3.0 | 5.0 | 0.00 | 0.00 | 0.00 | 32 | 1017.4 |
| 20260502024401 | 57 | 69 | 2.0 | 3.0 | 0.00 | 0.00 | 0.00 | 32 | 1017.3 |
| 20260502023853 | 58 | 55 | 1.0 | 3.0 | 0.00 | 0.00 | 0.00 | 33 | 1017.2 |
| 20260502023355 | 58 | 15 | 1.0 | 3.0 | 0.00 | 0.00 | 0.00 | 33 | 1017.2 |
| 20260502022856 | 58 | 36 | 1.0 | 3.0 | 0.00 | 0.00 | 0.00 | 32 | 1017.1 |
| 20260502022353 | 59 | 9 | 1.0 | 3.0 | 0.00 | 0.00 | 0.00 | 32 | 1017.1 |
| 20260502021857 | 59 | 9 | 1.0 | 3.0 | 0.00 | 0.00 | 0.00 | 31 | 1017.1 |
| 20260502021354 | 60 | 9 | 1.0 | 3.0 | 0.00 | 0.00 | 0.00 | 33 | 1017.0 |
| 20260502020853 | 60 | 9 | 1.0 | 4.0 | 0.00 | 0.00 | 0.00 | 33 | 1017.0 |
| 20260502020803 | 60 | 9 | 2.0 | 4.0 | 0.00 | 0.00 | 0.00 | 32 | 1017.0 |
| 20260502015913 | 61 | 355 | 2.0 | 4.0 | 0.00 | 0.00 | 0.00 | 33 | 1016.9 |
| 20260502015902 | 60 | 340 | 2.0 | 4.0 | 0.00 | 0.00 | 0.00 | 33 | 1016.9 |
| 20260502014857 | 61 | 336 | 2.0 | 4.0 | 0.00 | 0.00 | 0.00 | 32 | 1016.7 |
| 20260502014352 | 61 | 275 | 3.0 | 8.0 | 0.00 | 0.00 | 0.00 | 33 | 1016.7 |
| 20260502013854 | 61 | 336 | 3.0 | 8.0 | 0.00 | 0.00 | 0.00 | 32 | 1016.6 |
| 20260502013352 | 62 | 299 | 3.0 | 8.0 | 0.00 | 0.00 | 0.00 | 31 | 1016.5 |
| 20260502012852 | 62 | 332 | 3.0 | 5.0 | 0.00 | 0.00 | 0.00 | 31 | 1016.6 |
| 20260502012355 | 62 | 5 | 3.0 | 8.0 | 0.00 | 0.00 | 0.00 | 31 | 1016.6 |
| 20260502011855 | 62 | 0 | 3.0 | 8.0 | 0.00 | 0.00 | 0.00 | 31 | 1016.5 |
| 20260502011352 | 62 | 325 | 3.0 | 6.0 | 0.00 | 0.00 | 0.00 | 31 | 1016.5 |
| 20260502010853 | 63 | 324 | 2.0 | 6.0 | 0.00 | 0.00 | 0.00 | 31 | 1016.5 |
| 20260502010356 | 63 | 291 | 3.0 | 9.0 | 0.00 | 0.00 | 0.00 | 32 | 1016.5 |
| 20260502005849 | 63 | 288 | 2.0 | 9.0 | 0.00 | 0.00 | 0.00 | 31 | 1016.4 |
| 20260502005343 | 63 | 11 | 2.0 | 5.0 | 0.00 | 0.00 | 0.00 | 33 | 1016.5 |
| 20260502004836 | 63 | 340 | 2.0 | 5.0 | 0.00 | 0.00 | 0.00 | 31 | 1016.5 |
| 20260502004339 | 63 | 10 | 3.0 | 9.0 | 0.00 | 0.00 | 0.00 | 31 | 1016.5 |
| 20260502003839 | 64 | 355 | 4.0 | 9.0 | 0.00 | 0.00 | 0.00 | 31 | 1016.5 |
| 20260502003334 | 64 | 355 | 3.0 | 9.0 | 0.00 | 0.00 | 0.00 | 31 | 1016.5 |
| 20260502002833 | 64 | 19 | 3.0 | 9.0 | 0.00 | 0.00 | 0.00 | 31 | 1016.4 |
| 20260502002727 | 64 | 333 | 3.0 | 5.0 | 0.00 | 0.00 | 0.00 | 31 | 1016.4 |
| 20260502001833 | 64 | 328 | 3.0 | 8.0 | 0.00 | 0.00 | 0.00 | 30 | 1016.5 |
| 20260502001329 | 65 | 316 | 3.0 | 8.0 | 0.00 | 0.00 | 0.00 | 31 | 1016.5 |
| 20260502000833 | 65 | 343 | 3.0 | 7.0 | 0.00 | 0.00 | 0.00 | 29 | 1016.6 |
| 20260502000334 | 65 | 337 | 3.0 | 7.0 | 0.00 | 0.00 | 0.00 | 32 | 1016.5 |
| 20260502000306 | 65 | 333 | 3.0 | 6.0 | 0.00 | 0.00 | 0.00 | 30 | 1016.6 |
| 20260501235331 | 65 | 336 | 3.0 | 8.0 | 0.00 | 0.00 | 0.00 | 30 | 1016.6 |
| 20260501234829 | 65 | 335 | 3.0 | 9.0 | 0.00 | 0.00 | 0.00 | 29 | 1016.6 |
| 20260501234821 | 65 | 326 | 3.0 | 9.0 | 0.00 | 0.00 | 0.00 | 31 | 1016.6 |
| 20260501234339 | 65 | 355 | 3.0 | 9.0 | 0.00 | 0.00 | 0.00 | 30 | 1016.6 |
| 20260501233333 | 65 | 5 | 3.0 | 9.0 | 0.00 | 0.00 | 0.00 | 32 | 1016.5 |
| 20260501232833 | 65 | 21 | 4.0 | 9.0 | 0.00 | 0.00 | 0.00 | 30 | 1016.6 |
| 20260501232328 | 65 | 16 | 4.0 | 9.0 | 0.00 | 0.00 | 0.00 | 30 | 1016.6 |
| 20260501231822 | 65 | 298 | 3.0 | 9.0 | 0.00 | 0.00 | 0.00 | 33 | 1016.5 |
| 20260501231734 | 65 | 271 | 3.0 | 9.0 | 0.00 | 0.00 | 0.00 | 31 | 1016.6 |
| 20260501230812 | 66 | 355 | 3.0 | 10.0 | 0.00 | 0.00 | 0.00 | 29 | 1016.6 |
| 20260501230311 | 66 | 5 | 3.0 | 10.0 | 0.00 | 0.00 | 0.00 | 28 | 1016.6 |
| 20260501225810 | 66 | 351 | 3.0 | 9.0 | 0.00 | 0.00 | 0.00 | 32 | 1016.7 |
| 20260501225334 | 66 | 306 | 3.0 | 8.0 | 0.00 | 0.00 | 0.00 | 31 | 1016.9 |
| 20260501225311 | 66 | 43 | 2.0 | 9.0 | 0.00 | 0.00 | 0.00 | 28 | 1016.7 |
| 20260501225010 | 66 | 313 | 2.0 | 6.0 | 0.00 | 0.00 | 0.00 | 28 | 1016.9 |
| 20260501223810 | 66 | 344 | 3.0 | 9.0 | 0.00 | 0.00 | 0.00 | 29 | 1016.9 |
| 20260501223310 | 67 | 332 | 3.0 | 9.0 | 0.00 | 0.00 | 0.00 | 29 | 1017.0 |
| 20260501222813 | 67 | 296 | 3.0 | 9.0 | 0.00 | 0.00 | 0.00 | 29 | 1017.0 |
| 20260501222309 | 67 | 331 | 3.0 | 6.0 | 0.00 | 0.00 | 0.00 | 31 | 1017.1 |
| 20260501221807 | 68 | 333 | 2.0 | 7.0 | 0.00 | 0.00 | 0.00 | 29 | 1017.0 |
| 20260501221304 | 68 | 5 | 2.0 | 7.0 | 0.00 | 0.00 | 0.00 | 32 | 1017.1 |
| 20260501220805 | 68 | 297 | 3.0 | 9.0 | 0.00 | 0.00 | 0.00 | 30 | 1017.1 |
| 20260501220304 | 68 | 298 | 2.0 | 9.0 | 0.00 | 0.00 | 0.00 | 32 | 1017.1 |
| 20260501215804 | 68 | 16 | 2.0 | 6.0 | 0.00 | 0.00 | 0.00 | 30 | 1017.1 |
| 20260501215305 | 68 | 324 | 2.0 | 6.0 | 0.00 | 0.00 | 0.00 | 31 | 1017.2 |
| 20260501214802 | 68 | 304 | 3.0 | 10.0 | 0.00 | 0.00 | 0.00 | 31 | 1017.3 |
| 20260501214305 | 68 | 355 | 3.0 | 10.0 | 0.00 | 0.00 | 0.00 | 30 | 1017.3 |
| 20260501213805 | 68 | 317 | 3.0 | 8.0 | 0.00 | 0.00 | 0.00 | 30 | 1017.3 |
| 20260501213300 | 69 | 348 | 2.0 | 6.0 | 0.00 | 0.00 | 0.00 | 31 | 1017.3 |
| 20260501212754 | 69 | 348 | 3.0 | 9.0 | 0.00 | 0.00 | 0.00 | 31 | 1017.3 |
| 20260501212247 | 69 | 0 | 3.0 | 9.0 | 0.00 | 0.00 | 0.00 | 27 | 1017.4 |
| 20260501212146 | 69 | 9 | 3.0 | 9.0 | 0.00 | 0.00 | 0.00 | 29 | 1017.4 |
| 20260501211232 | 69 | 294 | 2.0 | 6.0 | 0.00 | 0.00 | 0.00 | 31 | 1017.4 |
| 20260501211043 | 69 | 288 | 2.0 | 7.0 | 0.00 | 0.00 | 0.00 | 33 | 1017.5 |
| 20260501210901 | 69 | 36 | 2.0 | 6.0 | 0.00 | 0.00 | 0.00 | 29 | 1017.5 |
| 20260501205733 | 69 | 292 | 3.0 | 8.0 | 0.00 | 0.00 | 0.00 | 31 | 1017.5 |
| 20260501205230 | 69 | 355 | 2.0 | 8.0 | 0.00 | 0.00 | 0.00 | 30 | 1017.4 |
| 20260501204730 | 69 | 313 | 3.0 | 9.0 | 0.00 | 0.00 | 0.00 | 32 | 1017.4 |
| 20260501204233 | 68 | 311 | 3.0 | 9.0 | 0.00 | 0.00 | 0.00 | 31 | 1017.4 |
| 20260501204126 | 68 | 308 | 2.0 | 6.0 | 0.00 | 0.00 | 0.00 | 33 | 1017.5 |
| 20260501203233 | 68 | 14 | 3.0 | 9.0 | 0.00 | 0.00 | 0.00 | 28 | 1017.5 |
| 20260501202731 | 69 | 332 | 2.0 | 9.0 | 0.00 | 0.00 | 0.00 | 31 | 1017.5 |
| 20260501202231 | 68 | 244 | 2.0 | 9.0 | 0.00 | 0.00 | 0.00 | 29 | 1017.5 |
| 20260501201732 | 67 | 136 | 3.0 | 9.0 | 0.00 | 0.00 | 0.00 | 30 | 1017.5 |
| 20260501201639 | 68 | 309 | 3.0 | 8.0 | 0.00 | 0.00 | 0.00 | 35 | 1017.5 |
| 20260501200729 | 69 | 350 | 3.0 | 8.0 | 0.00 | 0.00 | 0.00 | 32 | 1017.5 |
| 20260501200230 | 69 | 98 | 4.0 | 9.0 | 0.00 | 0.00 | 0.00 | 29 | 1017.7 |
| 20260501200139 | 70 | 283 | 3.0 | 9.0 | 0.00 | 0.00 | 0.00 | 36 | 1017.7 |
| 20260501195709 | 69 | 317 | 2.0 | 7.0 | 0.00 | 0.00 | 0.00 | 30 | 1017.8 |
| 20260501195102 | 69 | 302 | 2.0 | 8.0 | 0.00 | 0.00 | 0.00 | 32 | 1017.8 |
| 20260501194913 | 69 | 249 | 3.0 | 8.0 | 0.00 | 0.00 | 0.00 | 33 | 1017.8 |
| 20260501193721 | 69 | 284 | 2.0 | 7.0 | 0.00 | 0.00 | 0.00 | 38 | 1017.9 |
| 20260501193222 | 68 | 304 | 2.0 | 7.0 | 0.00 | 0.00 | 0.00 | 31 | 1017.9 |
| 20260501192721 | 68 | 349 | 2.0 | 5.0 | 0.00 | 0.00 | 0.00 | 32 | 1017.9 |
| 20260501192222 | 68 | 154 | 3.0 | 7.0 | 0.00 | 0.00 | 0.00 | 29 | 1018.0 |
| 20260501192136 | 68 | 273 | 2.0 | 7.0 | 0.00 | 0.00 | 0.00 | 34 | 1018.1 |
| 20260501191221 | 68 | 306 | 2.0 | 6.0 | 0.00 | 0.00 | 0.00 | 30 | 1018.1 |
| 20260501191118 | 69 | 326 | 3.0 | 10.0 | 0.00 | 0.00 | 0.00 | 28 | 1018.1 |
| 20260501190220 | 69 | 76 | 3.0 | 10.0 | 0.00 | 0.00 | 0.00 | 33 | 1018.2 |
| 20260501190047 | 68 | 249 | 3.0 | 8.0 | 0.00 | 0.00 | 0.00 | 39 | 1018.2 |
| 20260501185901 | 69 | 80 | 3.0 | 9.0 | 0.00 | 0.00 | 0.00 | 25 | 1018.2 |
| 20260501184722 | 68 | 325 | 3.0 | 8.0 | 0.00 | 0.00 | 0.00 | 31 | 1018.4 |
| 20260501184221 | 69 | 301 | 3.0 | 9.0 | 0.00 | 0.00 | 0.00 | 27 | 1018.5 |
| 20260501183724 | 69 | 229 | 3.0 | 9.0 | 0.00 | 0.00 | 0.00 | 29 | 1018.5 |
| 20260501183546 | 68 | 58 | 2.0 | 7.0 | 0.00 | 0.00 | 0.00 | 33 | 1018.6 |
| 20260501183406 | 68 | 107 | 2.0 | 7.0 | 0.00 | 0.00 | 0.00 | 27 | 1018.5 |
| 20260501182222 | 69 | 5 | 2.0 | 7.0 | 0.00 | 0.00 | 0.00 | 32 | 1018.6 |
| 20260501182131 | 69 | 304 | 3.0 | 7.0 | 0.00 | 0.00 | 0.00 | 34 | 1018.7 |
| 20260501181223 | 69 | 246 | 2.0 | 6.0 | 0.00 | 0.00 | 0.00 | 35 | 1018.7 |
| 20260501180720 | 68 | 267 | 3.0 | 6.0 | 0.00 | 0.00 | 0.00 | 34 | 1018.7 |
| 20260501180220 | 68 | 268 | 3.0 | 7.0 | 0.00 | 0.00 | 0.00 | 36 | 1018.7 |
| 20260501175738 | 67 | 128 | 3.0 | 7.0 | 0.00 | 0.00 | 0.00 | 27 | 1018.9 |
| 20260501175733 | 67 | 271 | 3.0 | 7.0 | 0.00 | 0.00 | 0.00 | 28 | 1018.7 |
| 20260501174720 | 67 | 145 | 2.0 | 7.0 | 0.00 | 0.00 | 0.00 | 30 | 1018.9 |
| 20260501174220 | 66 | 47 | 2.0 | 7.0 | 0.00 | 0.00 | 0.00 | 38 | 1018.9 |
| 20260501173720 | 66 | 27 | 2.0 | 4.0 | 0.00 | 0.00 | 0.00 | 34 | 1018.9 |
| 20260501173220 | 66 | 302 | 2.0 | 5.0 | 0.00 | 0.00 | 0.00 | 36 | 1019.0 |
| 20260501172720 | 66 | 297 | 1.0 | 6.0 | 0.00 | 0.00 | 0.00 | 35 | 1019.0 |
| 20260501172219 | 66 | 251 | 2.0 | 6.0 | 0.00 | 0.00 | 0.00 | 34 | 1019.0 |
| 20260501171720 | 65 | 259 | 2.0 | 6.0 | 0.00 | 0.00 | 0.00 | 39 | 1019.0 |
| 20260501171219 | 64 | 184 | 1.0 | 4.0 | 0.00 | 0.00 | 0.00 | 36 | 1019.0 |
| 20260501170738 | 64 | 295 | 1.0 | 4.0 | 0.00 | 0.00 | 0.00 | 34 | 1019.2 |
| 20260501170237 | 63 | 283 | 1.0 | 3.0 | 0.00 | 0.00 | 0.00 | 39 | 1019.2 |
| 20260501165735 | 62 | 287 | 1.0 | 3.0 | 0.00 | 0.00 | 0.00 | 37 | 1019.2 |
| 20260501165234 | 63 | 287 | 2.0 | 6.0 | 0.00 | 0.00 | 0.00 | 37 | 1019.0 |
| 20260501165203 | 62 | 205 | 2.0 | 6.0 | 0.00 | 0.00 | 0.00 | 38 | 1019.2 |
| 20260501164230 | 60 | 265 | 2.0 | 4.0 | 0.00 | 0.00 | 0.00 | 36 | 1019.0 |
| 20260501163726 | 59 | 265 | 2.0 | 4.0 | 0.00 | 0.00 | 0.00 | 39 | 1019.0 |
| 20260501163226 | 58 | 279 | 3.0 | 7.0 | 0.00 | 0.00 | 0.00 | 40 | 1019.2 |
| 20260501162730 | 57 | 254 | 3.0 | 7.0 | 0.00 | 0.00 | 0.00 | 40 | 1019.0 |
| 20260501162223 | 56 | 259 | 3.0 | 8.0 | 0.00 | 0.00 | 0.00 | 47 | 1019.2 |
| 20260501161721 | 55 | 257 | 2.0 | 8.0 | 0.00 | 0.00 | 0.00 | 43 | 1019.0 |
| 20260501161220 | 54 | 261 | 1.0 | 5.0 | 0.00 | 0.00 | 0.00 | 46 | 1019.0 |
| 20260501161048 | 54 | 294 | 2.0 | 6.0 | 0.00 | 0.00 | 0.00 | 47 | 1019.0 |
| 20260501160910 | 54 | 294 | 1.0 | 4.0 | 0.00 | 0.00 | 0.00 | 46 | 1019.0 |
| 20260501155722 | 53 | 294 | 2.0 | 6.0 | 0.00 | 0.00 | 0.00 | 47 | 1019.0 |
| 20260501155212 | 52 | 255 | 1.0 | 4.0 | 0.00 | 0.00 | 0.00 | 47 | 1019.0 |
| 20260501154711 | 52 | 240 | 1.0 | 3.0 | 0.00 | 0.00 | 0.00 | 50 | 1019.0 |
| 20260501154210 | 51 | 240 | 1.0 | 3.0 | 0.00 | 0.00 | 0.00 | 51 | 1018.9 |
| 20260501153707 | 50 | 240 | 1.0 | 4.0 | 0.00 | 0.00 | 0.00 | 52 | 1018.9 |
| 20260501153215 | 49 | 240 | 1.0 | 4.0 | 0.00 | 0.00 | 0.00 | 50 | 1018.9 |
| 20260501152709 | 48 | 240 | 1.0 | 4.0 | 0.00 | 0.00 | 0.00 | 50 | 1018.9 |
| 20260501152203 | 48 | 240 | 1.0 | 3.0 | 0.00 | 0.00 | 0.00 | 52 | 1018.9 |
| 20260501151709 | 47 | 240 | 2.0 | 5.0 | 0.00 | 0.00 | 0.00 | 53 | 1018.9 |
| 20260501151202 | 47 | 240 | 1.0 | 5.0 | 0.00 | 0.00 | 0.00 | 54 | 1018.9 |
| 20260501150701 | 46 | 204 | 1.0 | 4.0 | 0.00 | 0.00 | 0.00 | 54 | 1018.9 |
| 20260501150205 | 46 | 221 | 1.0 | 4.0 | 0.00 | 0.00 | 0.00 | 57 | 1018.9 |
| 20260501145701 | 45 | 221 | 0.0 | 3.0 | 0.00 | 0.00 | 0.00 | 54 | 1018.8 |
| 20260501145206 | 45 | 221 | 1.0 | 3.0 | 0.00 | 0.00 | 0.00 | 55 | 1018.8 |
| 20260501144657 | 44 | 221 | 1.0 | 2.0 | 0.00 | 0.00 | 0.00 | 56 | 1018.8 |
| 20260501144610 | 44 | 221 | 1.0 | 3.0 | 0.00 | 0.00 | 0.00 | 57 | 1018.8 |
| 20260501143655 | 44 | 221 | 1.0 | 3.0 | 0.00 | 0.00 | 0.00 | 58 | 1018.8 |
| 20260501143155 | 43 | 221 | 1.0 | 3.0 | 0.00 | 0.00 | 0.00 | 57 | 1018.8 |
| 20260501142650 | 43 | 221 | 2.0 | 3.0 | 0.00 | 0.00 | 0.00 | 60 | 1018.7 |
| 20260501142148 | 43 | 221 | 1.0 | 3.0 | 0.00 | 0.00 | 0.00 | 60 | 1018.7 |
| 20260501141649 | 42 | 221 | 1.0 | 3.0 | 0.00 | 0.00 | 0.00 | 61 | 1018.6 |
| 20260501141144 | 42 | 221 | 2.0 | 4.0 | 0.00 | 0.00 | 0.00 | 62 | 1018.7 |
| 20260501140651 | 42 | 221 | 2.0 | 4.0 | 0.00 | 0.00 | 0.00 | 62 | 1018.6 |
| 20260501140142 | 41 | 221 | 2.0 | 4.0 | 0.00 | 0.00 | 0.00 | 64 | 1018.6 |
| 20260501135641 | 41 | 221 | 1.0 | 3.0 | 0.00 | 0.00 | 0.00 | 65 | 1018.6 |
| 20260501135141 | 40 | 182 | 1.0 | 3.0 | 0.00 | 0.00 | 0.00 | 66 | 1018.5 |
| 20260501134641 | 40 | 150 | 2.0 | 5.0 | 0.00 | 0.00 | 0.00 | 66 | 1018.5 |